[[{"header":{"parameterUnit":"m.s-1","parameterCategory":1,"la1":30.2991,"la2":30.254,"lo1":-89.0895,"lo2":-89.0444,"dy":0.0017,"dx":0.0017,"nx":28,"ny":28,"refTime":"2024-02-15T03:00:00:Z","depth":0,"parameterNumber":2,"parameterNumberName":"U-component_of_WINDS"},"data":[0,0,0,0,0,0,0,0,0,0,0,0,0,0,0,0,0,0,0,0,0,0,0,0,0,0,0,0,0,0,0,0,0,0,0,0,0,0,0,0,0,0,0,0,0,0,0,0,0,0,0,0,0,0,0,0,0,0,-0.0048,-0.0047,0,-0.0031,-0.0031,-0.0031,-0.0018,-0.0018,-0.0017,-0.0017,-0.0001,-0.0001,-0.0001,0,0,0,0,0,0,0,0,0,0,0,0,0,-0.0069,-0.0069,-0.0048,-0.0047,-0.0047,-0.0031,-0.0031,-0.0031,-0.0018,-0.0018,-0.0017,-0.0017,-0.0002,-0.0001,-0.0001,0,0,0,0,0,0,0,0,0,0,0,0,0,-0.0057,-0.0069,-0.0048,-0.0039,-0.0038,-0.0031,-0.0031,-0.0031,-0.0018,-0.0018,-0.0017,-0.0017,-0.0002,-0.0001,-0.0001,-0.0002,0,0,0.0001,0.0001,0,0,0,0,0,0,0,0,-0.0058,-0.0056,-0.004,-0.0039,-0.0038,-0.0026,-0.0033,-0.0021,-0.0018,-0.0025,-0.0017,-0.0017,-0.001,-0.0009,-0.0006,-0.0001,-0.0001,0.0001,0.0001,0.0001,0.0001,0,0,0,0,0,0,0,-0.0059,-0.0057,-0.0041,-0.004,-0.0039,-0.0036,-0.0034,-0.0031,-0.0019,-0.0025,-0.0024,-0.0022,-0.0009,-0.0007,-0.0006,-0.0,0.0001,0.0001,0.0001,0.0001,0.0003,0.0003,0,0,0,0,0,0,-0.0061,-0.0058,-0.0042,-0.0041,-0.0048,-0.0036,-0.0034,-0.003,-0.0019,-0.0017,-0.0022,-0.0021,-0.0008,-0.0006,-0.0005,-0.0006,0.0001,0.0001,0.0002,0.0004,0.0003,0.0003,0,0,0,0,0,0,-0.0061,-0.0059,-0.0042,-0.0049,-0.0047,-0.0036,-0.0032,-0.003,-0.0027,-0.0017,-0.0015,-0.0021,-0.0007,-0.0006,-0.0003,-0.0006,0.0002,0.0002,0.0004,0.0004,0.0003,-0.0009,0,0,0,0,0,0,-0.0062,-0.006,-0.006,-0.0049,-0.0046,-0.004,-0.0032,-0.003,-0.0026,-0.0025,-0.0016,-0.0014,-0.0007,-0.0004,-0.0003,-0.0005,0.0002,0.0004,0.0004,0.0003,-0.0008,-0.0009,-0.0011,0,0,0,0,0,-0.0063,-0.0064,-0.006,-0.0058,-0.0046,-0.004,-0.0039,-0.003,-0.0027,-0.0027,-0.002,-0.0014,-0.0005,-0.0004,-0.0002,-0.0004,0.0004,0.0004,0.0003,-0.0007,-0.0009,-0.0011,0,0,0,0,0,0,-0.0075,-0.0062,-0.0058,-0.0055,-0.0049,-0.0038,-0.0038,-0.0032,-0.0027,-0.0026,-0.0017,-0.0015,-0.0013,-0.0008,-0.0007,-0.0005,0.0,-0.0,-0.0009,-0.001,-0.0011,-0.0013,0.0003,0,0,0,0,0,-0.0078,-0.0074,-0.0063,-0.0061,-0.0059,-0.0049,-0.0046,-0.004,-0.0034,-0.0031,-0.0024,-0.0018,-0.0014,-0.0012,-0.0007,-0.0007,-0.0005,-0.0008,-0.0009,-0.001,-0.0011,-0.0011,-0.0013,0.0002,0.0002,0.0002,0,0,-0.0083,-0.0075,-0.0073,-0.0064,-0.0058,-0.0055,-0.0047,-0.0043,-0.0041,-0.0031,-0.0028,-0.0023,-0.0015,-0.0014,-0.0013,-0.001,-0.0014,-0.0011,-0.0012,-0.0012,-0.0012,-0.0013,-0.0014,0.0001,0.0001,0.0001,0,0,-0.009,-0.0084,-0.0082,-0.0077,-0.0069,-0.0062,-0.0062,-0.0052,-0.0049,-0.0045,-0.0038,-0.0035,-0.0028,-0.0023,-0.002,-0.0027,-0.0021,-0.0025,-0.0032,-0.0033,-0.0034,-0.0035,-0.0038,-0.0039,-0.0026,-0.0026,-0.0026,0,-0.0097,-0.0092,-0.0082,-0.008,-0.0076,-0.0066,-0.0065,-0.0061,-0.0052,-0.005,-0.0046,-0.0038,-0.0032,-0.003,-0.0032,-0.0029,-0.0029,-0.0027,-0.0034,-0.0035,-0.0036,-0.0039,-0.004,-0.0027,-0.0026,-0.0026,-0.0026,0,-0.0102,-0.0098,-0.0098,-0.0089,-0.0086,-0.0084,-0.0075,-0.0073,-0.0067,-0.0061,-0.0059,-0.0052,-0.0046,-0.0045,-0.004,-0.0042,-0.0041,-0.0036,-0.003,-0.0038,-0.0041,-0.0042,-0.0027,-0.0027,-0.0027,-0.0027,0,0,-0.0116,-0.0103,-0.0103,-0.0099,-0.009,-0.0087,-0.0085,-0.008,-0.0078,-0.0072,-0.0071,-0.0066,-0.0061,-0.0058,-0.0052,-0.0052,-0.0058,-0.0047,-0.0047,-0.005,-0.0062,-0.0066,-0.0068,-0.0055,-0.0055,-0.0055,-0.0063,0,-0.0123,-0.0118,-0.011,-0.0109,-0.0106,-0.0097,-0.0095,-0.0089,-0.0084,-0.0081,-0.0075,-0.0072,-0.0066,-0.0064,-0.0064,-0.0058,-0.0061,-0.0057,-0.0054,-0.0054,-0.0057,-0.0069,-0.0073,-0.0081,-0.0064,-0.0064,-0.0064,0,-0.0129,-0.0124,-0.0123,-0.0114,-0.0112,-0.0111,-0.0106,-0.0103,-0.0097,-0.0093,-0.0089,-0.0082,-0.0081,-0.0075,-0.0073,-0.007,-0.0069,-0.0066,-0.0066,-0.0066,-0.006,-0.007,-0.0083,-0.0085,-0.0065,-0.0065,-0.0065,0,-0.0141,-0.0134,-0.0132,-0.0129,-0.0119,-0.0118,-0.0114,-0.0108,-0.0105,-0.01,-0.0099,-0.0094,-0.0092,-0.0088,-0.0081,-0.0078,-0.008,-0.0074,-0.0077,-0.0078,-0.0079,-0.0079,-0.0093,-0.0077,-0.0077,-0.0076,-0.0076,0,-0.015,-0.0149,-0.0137,-0.0136,-0.0136,-0.0127,-0.0127,-0.0121,-0.0116,-0.0114,-0.0106,-0.0105,-0.0095,-0.0092,-0.0087,-0.0086,-0.0085,-0.0082,-0.0081,-0.0084,-0.0084,-0.0083,-0.0082,-0.0077,-0.0077,-0.0077,-0.0077,0,-0.0163,-0.0155,-0.0152,-0.0143,-0.0141,-0.0141,-0.0133,-0.0132,-0.0126,-0.0124,-0.0123,-0.0114,-0.0111,-0.0104,-0.0099,-0.0095,-0.0096,-0.0093,-0.0098,-0.0098,-0.0102,-0.0102,-0.0116,-0.0118,-0.01,-0.01,-0.01,0,-0.0169,-0.0168,-0.0159,-0.0157,-0.0153,-0.015,-0.0148,-0.0139,-0.0137,-0.013,-0.013,-0.0126,-0.0123,-0.0119,-0.0112,-0.0108,-0.0106,-0.0111,-0.0105,-0.0108,-0.0107,-0.0107,-0.0107,-0.0112,-0.0112,-0.0113,-0.0113,0,-0.0181,-0.0177,-0.0173,-0.0169,-0.0166,-0.0162,-0.0157,-0.0156,-0.0147,-0.0145,-0.0141,-0.0139,-0.0134,-0.013,-0.0126,-0.0122,-0.0116,-0.0115,-0.0115,-0.0118,-0.0122,-0.0121,-0.0103,-0.0114,-0.0114,-0.0114,-0.0114,-0.0114,-0.0191,-0.0191,-0.0184,-0.0181,-0.0176,-0.0172,-0.0171,-0.0166,-0.0163,-0.0158,-0.0153,-0.0151,-0.0145,-0.0138,-0.0135,-0.0133,-0.013,-0.0131,-0.0131,-0.0132,-0.0133,-0.0121,-0.0132,-0.0132,-0.0132,-0.0132,-0.0132,0,-0.0203,-0.0199,-0.0196,-0.019,-0.0187,-0.0182,-0.0177,-0.0175,-0.0173,-0.0168,-0.0165,-0.0162,-0.0159,-0.0152,-0.0149,-0.0149,-0.0146,-0.0148,-0.0148,-0.0148,-0.0136,-0.0136,-0.015,-0.015,-0.015,-0.015,-0.015,-0.015,-0.0209,-0.0208,-0.0204,-0.0201,-0.0197,-0.0194,-0.0192,-0.0189,-0.0185,-0.0182,-0.0179,-0.0175,-0.0169,-0.0165,-0.0163,-0.0161,-0.016,-0.0163,-0.0161,-0.015,-0.0148,-0.0147,-0.0147,-0.0163,-0.0163,-0.0173,-0.0173,-0.0173]},{"header":{"parameterUnit":"m.s-1","parameterCategory":1,"la1":30.2991,"la2":30.254,"lo1":-89.0895,"lo2":-89.0444,"dy":0.0017,"dx":0.0017,"nx":28,"ny":28,"refTime":"2024-02-15T03:00:00:Z","depth":0,"parameterNumber":3,"parameterNumberName":"V-component_of_WINDS"},"data":[0,0,0,0,0,0,0,0,0,0,0,0,0,0,0,0,0,0,0,0,0,0,0,0,0,0,0,0,0,0,0,0,0,0,0,0,0,0,0,0,0,0,0,0,0,0,0,0,0,0,0,0,0,0,0,0,0,0,1.281,1.2811,0,1.2918,1.2919,1.292,1.294,1.2939,1.2938,1.2937,1.3044,1.3048,1.3052,0,0,0,0,0,0,0,0,0,0,0,0,0,1.2618,1.2621,1.281,1.2811,1.2813,1.2918,1.2919,1.292,1.294,1.2939,1.2938,1.2937,1.3043,1.3047,1.3052,0,0,0,0,0,0,0,0,0,0,0,0,0,1.2711,1.2622,1.281,1.2835,1.2838,1.2917,1.2919,1.2921,1.294,1.2939,1.2937,1.2936,1.3042,1.3047,1.3052,1.3113,0,0,1.3069,1.3072,0,0,0,0,0,0,0,0,1.2706,1.2718,1.283,1.2833,1.2837,1.2914,1.2891,1.2985,1.294,1.2901,1.2937,1.2935,1.3002,1.301,1.3034,1.3118,1.3123,1.307,1.3073,1.3076,1.3077,0,0,0,0,0,0,0,1.2699,1.2713,1.2853,1.2831,1.2836,1.284,1.2852,1.2909,1.2957,1.2905,1.2906,1.2919,1.3004,1.3028,1.3036,1.3124,1.307,1.3075,1.3078,1.308,1.3262,1.3264,0,0,0,0,0,0,1.2689,1.2708,1.2849,1.2856,1.2767,1.2844,1.2858,1.2891,1.2957,1.2966,1.292,1.2919,1.3019,1.303,1.304,1.3115,1.3076,1.3081,1.3084,1.3261,1.3263,1.3264,0,0,0,0,0,0,1.2684,1.2701,1.2845,1.2782,1.2801,1.2849,1.2886,1.2893,1.2918,1.2969,1.2977,1.2936,1.3019,1.3032,1.3095,1.3119,1.3083,1.3088,1.3259,1.3261,1.3263,1.3265,0,0,0,0,0,0,1.2679,1.2699,1.2724,1.2783,1.2804,1.2899,1.2888,1.2896,1.2928,1.2928,1.2986,1.2995,1.3019,1.3086,1.31,1.3126,1.3092,1.3257,1.326,1.3263,1.3263,1.3267,1.327,0,0,0,0,0,1.2672,1.2719,1.2725,1.2742,1.2836,1.29,1.2912,1.294,1.293,1.2954,1.2986,1.2993,1.3114,1.3093,1.3108,1.3136,1.3256,1.3259,1.3263,1.3261,1.3266,1.327,0,0,0,0,0,0,1.2661,1.2728,1.2734,1.2803,1.2846,1.2903,1.2935,1.2944,1.299,1.2989,1.302,1.3033,1.3093,1.3121,1.3096,1.3197,1.3184,1.3191,1.3177,1.3182,1.3186,1.3178,1.3097,0,0,0,0,0,1.2667,1.2715,1.277,1.2824,1.2846,1.2886,1.2915,1.2933,1.2978,1.2996,1.3033,1.3076,1.3124,1.3155,1.3201,1.3266,1.3279,1.3293,1.3297,1.3299,1.3305,1.334,1.3347,1.3276,1.3276,1.3275,0,0,1.2679,1.2721,1.2749,1.2823,1.2859,1.2906,1.2902,1.2952,1.2987,1.3004,1.3065,1.3093,1.3143,1.3207,1.3237,1.3232,1.3327,1.3304,1.3306,1.331,1.3345,1.3351,1.3357,1.3278,1.3278,1.3277,0,0,1.2726,1.2763,1.2812,1.2847,1.2901,1.2928,1.2939,1.2996,1.3015,1.3078,1.3091,1.3132,1.3214,1.3249,1.3277,1.3335,1.3342,1.3349,1.3369,1.3403,1.3409,1.3414,1.3434,1.3441,1.3355,1.3355,1.3355,0,1.2734,1.2807,1.2836,1.2886,1.2918,1.2935,1.2985,1.3018,1.3083,1.3104,1.3097,1.32,1.3235,1.3306,1.3321,1.3343,1.3357,1.3343,1.3406,1.3411,1.3416,1.3436,1.3443,1.3355,1.3355,1.3355,1.3355,0,1.2814,1.2864,1.2897,1.2961,1.2996,1.3046,1.3081,1.3114,1.3128,1.3154,1.3217,1.3259,1.3314,1.3332,1.3347,1.3406,1.3401,1.34,1.3387,1.3423,1.3442,1.345,1.3356,1.3356,1.3355,1.3355,0,0,1.2857,1.2936,1.2948,1.2976,1.3036,1.3075,1.3125,1.318,1.3206,1.325,1.3292,1.336,1.3359,1.3391,1.3409,1.3439,1.3482,1.3434,1.3436,1.3441,1.3549,1.355,1.3558,1.3487,1.3489,1.349,1.3545,0,1.2911,1.3001,1.3028,1.3103,1.3149,1.3166,1.3209,1.325,1.3276,1.3318,1.3346,1.3394,1.3389,1.3409,1.3439,1.347,1.3504,1.3467,1.3525,1.3527,1.3512,1.3568,1.3569,1.3619,1.3552,1.3554,1.3554,0,1.2985,1.3031,1.3111,1.3165,1.3185,1.3223,1.3275,1.3316,1.3361,1.3378,1.3414,1.3429,1.348,1.3464,1.3534,1.3508,1.3534,1.3552,1.3555,1.3561,1.3543,1.3575,1.3635,1.3643,1.3566,1.3566,1.3565,0,1.3008,1.309,1.3149,1.3173,1.3237,1.3263,1.3291,1.3335,1.3366,1.3411,1.3431,1.3481,1.3508,1.3545,1.3573,1.3559,1.364,1.3627,1.3655,1.3654,1.3671,1.367,1.3736,1.3688,1.3688,1.3688,1.3687,0,1.3065,1.3113,1.316,1.3196,1.325,1.328,1.3332,1.336,1.34,1.344,1.3457,1.3495,1.3529,1.3571,1.3593,1.3647,1.3659,1.3673,1.3679,1.3672,1.367,1.3689,1.3686,1.369,1.3689,1.3689,1.3688,0,1.31,1.3134,1.3198,1.3253,1.3268,1.3305,1.3352,1.3386,1.3413,1.3464,1.3478,1.3519,1.3569,1.36,1.3663,1.3678,1.3737,1.3741,1.3722,1.3724,1.375,1.3747,1.3831,1.3843,1.3787,1.3787,1.3788,0,1.3134,1.3172,1.3231,1.3259,1.3287,1.3334,1.3365,1.3395,1.3427,1.3482,1.351,1.3561,1.3604,1.3682,1.3717,1.3765,1.377,1.3796,1.3778,1.377,1.377,1.3768,1.3771,1.3799,1.38,1.38,1.38,0,1.3191,1.3205,1.3251,1.3301,1.3339,1.338,1.3421,1.3443,1.348,1.3515,1.3567,1.36,1.3664,1.3715,1.3766,1.3793,1.3802,1.3806,1.3815,1.3808,1.3795,1.3802,1.373,1.3804,1.3804,1.3803,1.3803,1.3803,1.3226,1.326,1.3307,1.3356,1.339,1.3428,1.3463,1.3494,1.3538,1.3593,1.3608,1.3662,1.3705,1.3775,1.3803,1.3845,1.3841,1.3854,1.3858,1.386,1.386,1.3789,1.3854,1.3854,1.3854,1.3854,1.3854,0,1.3283,1.3314,1.3359,1.3416,1.3455,1.3461,1.3507,1.3538,1.3586,1.3626,1.3667,1.3726,1.3775,1.3813,1.3863,1.3888,1.3894,1.39,1.3899,1.3904,1.3861,1.3848,1.3895,1.3895,1.3895,1.3895,1.3895,1.3895,1.3318,1.3375,1.3395,1.3468,1.3498,1.3552,1.3577,1.3611,1.3644,1.3709,1.3749,1.3774,1.3814,1.3866,1.391,1.392,1.3937,1.3943,1.3953,1.3912,1.3908,1.3903,1.3892,1.3946,1.3946,1.3993,1.3994,1.3994]}]]